• In Hungary
  • List of Countries
  • For 7 days
  • Water Temperature
  • Satellite Maps
  • Weather Map
  • News
  • Weather Widgets
  • user-avatar
    Login

    Hourly Weather Goa

    Today, 21 November, Tuesday

    Time Temperature Precipitation Wind Pressure Humidity
    00:00 +27°C° 0.8 mm 2 mps 753 mmHg 77%
    01:00 +27°C° 0.8 mm 3 mps 753 mmHg 76%
    02:00 +26°C° 0.8 mm 3 mps 752 mmHg 76%
    03:00 +26°C° 0.5 mm 3 mps 752 mmHg 76%
    04:00 +26°C° 0.5 mm 3 mps 752 mmHg 77%
    05:00 +26°C° 0 mm 2 mps 752 mmHg 78%
    06:00 +27°C° 0.1 mm 2 mps 753 mmHg 74%
    07:00 +29°C° 0.1 mm 2 mps 753 mmHg 69%
    08:00 +30°C° 0.1 mm 2 mps 753 mmHg 65%
    09:00 +32°C° 0 mm 2 mps 753 mmHg 58%
    10:00 +35°C° 0 mm 2 mps 753 mmHg 52%
    11:00 +37°C° 0 mm 2 mps 753 mmHg 44%
    12:00 +37°C° 0 mm 2 mps 753 mmHg 43%
    13:00 +38°C° 0 mm 2 mps 752 mmHg 42%
    14:00 +39°C° 0 mm 2 mps 751 mmHg 42%
    15:00 +37°C° 0 mm 3 mps 751 mmHg 49%
    16:00 +35°C° 0 mm 3 mps 751 mmHg 57%
    17:00 +31°C° 0 mm 3 mps 751 mmHg 66%
    18:00 +30°C° 0 mm 3 mps 751 mmHg 68%
    19:00 +29°C° 0 mm 3 mps 752 mmHg 71%
    20:00 +28°C° 0 mm 4 mps 752 mmHg 74%
    21:00 +28°C° 0 mm 4 mps 752 mmHg 74%
    22:00 +28°C° 0 mm 4 mps 752 mmHg 74%
    23:00 +27°C° 0 mm 4 mps 752 mmHg 73%

    Tomorrow, 22 November, Wednesday

    Time Temperature Precipitation Wind Pressure Humidity
    00:00 +27°C° 0 mm 4 mps 752 mmHg 73%
    01:00 +27°C° 0 mm 4 mps 752 mmHg 73%
    02:00 +27°C° 0 mm 3 mps 751 mmHg 72%
    03:00 +27°C° 0.1 mm 3 mps 751 mmHg 72%
    04:00 +27°C° 0.1 mm 3 mps 751 mmHg 73%
    05:00 +26°C° 0.1 mm 2 mps 751 mmHg 73%
    06:00 +28°C° 0 mm 2 mps 752 mmHg 70%
    07:00 +29°C° 0 mm 2 mps 752 mmHg 67%
    08:00 +30°C° 0 mm 2 mps 753 mmHg 64%
    09:00 +32°C° 0 mm 2 mps 753 mmHg 58%
    10:00 +34°C° 0 mm 1 mps 753 mmHg 51%
    11:00 +36°C° 0 mm 1 mps 753 mmHg 45%
    12:00 +38°C° 0 mm 2 mps 752 mmHg 44%
    13:00 +38°C° 0 mm 2 mps 751 mmHg 43%
    14:00 +39°C° 0 mm 3 mps 751 mmHg 43%
    15:00 +37°C° 0 mm 3 mps 751 mmHg 50%
    16:00 +35°C° 0 mm 3 mps 751 mmHg 57%
    17:00 +33°C° 0 mm 3 mps 751 mmHg 64%
    18:00 +31°C° 0 mm 3 mps 751 mmHg 67%
    19:00 +30°C° 0 mm 3 mps 752 mmHg 70%
    20:00 +29°C° 0 mm 3 mps 752 mmHg 72%
    21:00 +28°C° 0 mm 4 mps 752 mmHg 72%
    22:00 +28°C° 0 mm 4 mps 752 mmHg 73%
    23:00 +28°C° 0 mm 4 mps 752 mmHg 73%

    Day after tomorrow, 23 November, Thursday

    Time Temperature Precipitation Wind Pressure Humidity
    00:00 +27°C° 0.1 mm 4 mps 752 mmHg 73%
    01:00 +27°C° 0.1 mm 4 mps 752 mmHg 73%
    02:00 +27°C° 0.1 mm 4 mps 751 mmHg 73%
    03:00 +27°C° 0.1 mm 3 mps 751 mmHg 74%
    04:00 +26°C° 0.1 mm 3 mps 751 mmHg 74%
    05:00 +26°C° 0.1 mm 3 mps 751 mmHg 74%
    06:00 +27°C° 0 mm 3 mps 752 mmHg 71%
    07:00 +28°C° 0 mm 3 mps 752 mmHg 68%
    08:00 +29°C° 0 mm 3 mps 753 mmHg 65%
    09:00 +33°C° 0 mm 3 mps 753 mmHg 57%
    10:00 +35°C° 0 mm 2 mps 753 mmHg 49%
    11:00 +37°C° 0 mm 2 mps 753 mmHg 41%
    12:00 +37°C° 0 mm 2 mps 752 mmHg 41%
    13:00 +38°C° 0 mm 2 mps 752 mmHg 40%
    14:00 +38°C° 0 mm 3 mps 751 mmHg 40%
    15:00 +36°C° 0 mm 3 mps 751 mmHg 47%
    16:00 +34°C° 0 mm 3 mps 751 mmHg 54%
    17:00 +31°C° 0 mm 3 mps 751 mmHg 62%
    18:00 +30°C° 0 mm 3 mps 752 mmHg 65%
    19:00 +29°C° 0 mm 3 mps 752 mmHg 68%
    20:00 +28°C° 0 mm 3 mps 753 mmHg 71%
    21:00 +27°C° 0 mm 3 mps 753 mmHg 72%
    22:00 +27°C° 0 mm 3 mps 753 mmHg 73%
    23:00 +27°C° 0 mm 3 mps 753 mmHg 74%

    24 November, Friday

    Time Temperature Precipitation Wind Pressure Humidity
    00:00 +27°C° 0 mm 3 mps 753 mmHg 73%
    01:00 +27°C° 0 mm 3 mps 752 mmHg 73%
    02:00 +27°C° 0 mm 3 mps 752 mmHg 72%
    03:00 +27°C° 0 mm 3 mps 752 mmHg 72%
    04:00 +26°C° 0 mm 3 mps 752 mmHg 71%
    05:00 +26°C° 0 mm 3 mps 752 mmHg 70%
    06:00 +27°C° 0 mm 3 mps 753 mmHg 67%
    07:00 +29°C° 0 mm 3 mps 753 mmHg 64%
    08:00 +30°C° 0 mm 3 mps 754 mmHg 61%
    09:00 +32°C° 0 mm 2 mps 754 mmHg 54%
    10:00 +35°C° 0 mm 2 mps 754 mmHg 47%
    11:00 +38°C° 0 mm 2 mps 754 mmHg 40%
    12:00 +37°C° 0 mm 2 mps 753 mmHg 42%
    13:00 +37°C° 0 mm 2 mps 752 mmHg 43%
    14:00 +37°C° 0 mm 3 mps 752 mmHg 44%
    15:00 +35°C° 0 mm 3 mps 752 mmHg 52%
    16:00 +34°C° 0 mm 3 mps 752 mmHg 60%
    17:00 +31°C° 0 mm 3 mps 752 mmHg 68%
    18:00 +30°C° 0 mm 3 mps 752 mmHg 71%
    19:00 +29°C° 0 mm 3 mps 753 mmHg 73%
    20:00 +28°C° 0 mm 3 mps 754 mmHg 76%
    21:00 +28°C° 0 mm 3 mps 754 mmHg 76%
    22:00 +27°C° 0 mm 3 mps 754 mmHg 75%
    23:00 +27°C° 0 mm 4 mps 754 mmHg 75%

    25 November, Saturday

    Time Temperature Precipitation Wind Pressure Humidity
    00:00 +27°C° 0 mm 4 mps 753 mmHg 73%
    01:00 +27°C° 0 mm 4 mps 753 mmHg 71%
    02:00 +26°C° 0 mm 5 mps 752 mmHg 69%
    03:00 +26°C° 0 mm 4 mps 752 mmHg 67%
    04:00 +26°C° 0 mm 4 mps 752 mmHg 66%
    05:00 +26°C° 0 mm 3 mps 753 mmHg 64%
    06:00 +27°C° 0 mm 3 mps 753 mmHg 62%
    07:00 +28°C° 0 mm 3 mps 754 mmHg 59%
    08:00 +29°C° 0 mm 3 mps 754 mmHg 57%
    09:00 +31°C° 0 mm 3 mps 754 mmHg 51%
    10:00 +34°C° 0 mm 2 mps 754 mmHg 45%
    11:00 +37°C° 0 mm 2 mps 754 mmHg 39%
    12:00 +37°C° 0 mm 2 mps 754 mmHg 37%
    13:00 +38°C° 0 mm 3 mps 753 mmHg 35%
    14:00 +38°C° 0 mm 3 mps 752 mmHg 33%
    15:00 +36°C° 0 mm 3 mps 752 mmHg 41%
    16:00 +34°C° 0 mm 4 mps 752 mmHg 49%
    17:00 +32°C° 0 mm 4 mps 752 mmHg 57%
    18:00 +30°C° 0 mm 4 mps 753 mmHg 60%
    19:00 +29°C° 0 mm 4 mps 753 mmHg 64%
    20:00 +28°C° 0 mm 4 mps 754 mmHg 67%
    21:00 +27°C° 0 mm 4 mps 754 mmHg 65%
    22:00 +27°C° 0 mm 4 mps 754 mmHg 63%
    23:00 +27°C° 0 mm 4 mps 754 mmHg 61%

    26 November, Sunday

    Time Temperature Precipitation Wind Pressure Humidity
    00:00 +26°C° 0 mm 4 mps 753 mmHg 59%
    01:00 +26°C° 0 mm 4 mps 753 mmHg 57%
    02:00 +25°C° 0 mm 4 mps 753 mmHg 55%
    03:00 +25°C° 0 mm 4 mps 753 mmHg 57%
    04:00 +25°C° 0 mm 4 mps 753 mmHg 59%
    05:00 +25°C° 0 mm 4 mps 753 mmHg 61%
    06:00 +26°C° 0 mm 4 mps 754 mmHg 60%
    07:00 +27°C° 0 mm 4 mps 754 mmHg 59%
    08:00 +28°C° 0 mm 5 mps 755 mmHg 57%
    09:00 +32°C° 0 mm 4 mps 755 mmHg 49%
    10:00 +34°C° 0 mm 3 mps 755 mmHg 41%
    11:00 +36°C° 0 mm 3 mps 755 mmHg 33%
    12:00 +37°C° 0 mm 3 mps 754 mmHg 31%
    13:00 +38°C° 0 mm 2 mps 753 mmHg 28%
    14:00 +38°C° 0 mm 2 mps 752 mmHg 25%
    15:00 +37°C° 0 mm 3 mps 752 mmHg 32%
    16:00 +35°C° 0 mm 3 mps 752 mmHg 39%
    17:00 +33°C° 0 mm 3 mps 752 mmHg 46%
    18:00 +30°C° 0 mm 4 mps 753 mmHg 50%
    19:00 +28°C° 0 mm 4 mps 753 mmHg 54%
    20:00 +26°C° 0 mm 4 mps 754 mmHg 58%
    21:00 +26°C° 0 mm 4 mps 754 mmHg 54%
    22:00 +25°C° 0 mm 4 mps 754 mmHg 50%
    23:00 +25°C° 0 mm 4 mps 754 mmHg 46%
    Show more